FW0158 Weather Reports


Display with metric or nautical units.
time (UTC)temp
F
wind
direction
speed
MPH
gust
MPH
rain 1hr
in
rain 24hr
in
rain mn
in
humidity
%
barometer
mb
20220520063001 76 180 2.0 11.0 0.00 0.00 0.00 74 1005.5
20220520061610 76 180 5.0 8.0 0.00 0.00 0.00 75 1005.5
20220520060059 76 180 4.0 9.0 0.00 0.00 0.00 75 1005.6
20220520054558 76 180 3.0 10.0 0.00 0.00 0.00 75 1005.8
20220520053056 76 180 3.0 8.0 0.00 0.00 0.00 75 1005.8
20220520051605 76 180 2.0 9.0 0.00 0.00 0.00 74 1005.9
20220520050053 76 180 2.0 6.0 0.00 0.00 0.00 74 1006.0
20220520044634 77 180 2.0 5.0 0.00 0.00 0.00 73 1006.1
20220520043103 77 180 2.0 6.0 0.00 0.00 0.00 72 1006.1
20220520041552 77 180 4.0 6.0 0.00 0.00 0.00 72 1006.1
20220520040106 78 180 3.0 6.0 0.00 0.00 0.00 71 1006.1
20220520034552 78 180 2.0 6.0 0.00 0.00 0.00 71 1006.3
20220520033055 78 180 3.0 6.0 0.00 0.00 0.00 71 1006.3
20220520031550 79 180 4.0 10.0 0.00 0.00 0.00 71 1006.1
20220520030057 79 180 3.0 6.0 0.00 0.00 0.00 71 1006.1
20220520024558 79 180 4.0 10.0 0.00 0.00 0.00 71 1006.1
20220520023047 79 180 5.0 13.0 0.00 0.00 0.00 71 1005.8
20220520021550 80 180 4.0 9.0 0.00 0.00 0.00 71 1005.7
20220520020049 80 180 4.0 11.0 0.00 0.00 0.00 70 1005.4
20220520014547 81 180 4.0 9.0 0.00 0.00 0.00 70 1005.3
20220520013046 81 180 5.0 12.0 0.00 0.00 0.00 70 1005.2
20220520011553 81 180 4.0 12.0 0.00 0.00 0.00 69 1005.3
20220520010044 82 180 4.0 13.0 0.00 0.00 0.00 68 1005.2
20220520004544 82 180 4.0 14.0 0.00 0.00 0.00 66 1005.2
20220520003043 83 180 4.0 11.0 0.00 0.00 0.00 65 1005.1
20220520001543 83 141 5.0 15.0 0.00 0.00 0.00 64 1005.1
20220520000043 84 81 7.0 14.0 0.00 0.00 0.00 63 1005.0
20220519234554 84 83 6.0 14.0 0.00 0.00 0.00 62 1004.9
20220519233040 85 107 5.0 13.0 0.00 0.00 0.00 61 1005.0
20220519231542 85 137 8.0 14.0 0.00 0.00 0.00 59 1005.2
20220519230058 86 145 8.0 18.0 0.00 0.00 0.00 57 1005.2
20220519224555 87 61 8.0 14.0 0.00 0.00 0.00 56 1005.2
20220519223046 87 134 5.0 13.0 0.00 0.00 0.00 57 1005.2
20220519221537 87 125 6.0 13.0 0.00 0.00 0.00 54 1005.2
20220519220043 87 134 7.0 15.0 0.00 0.00 0.00 51 1005.1
20220519214537 87 125 5.0 16.0 0.00 0.00 0.00 52 1005.1
20220519213034 87 138 7.0 14.0 0.00 0.00 0.00 52 1005.1
20220519211538 87 124 8.0 17.0 0.00 0.00 0.00 53 1005.2
20220519210035 87 148 6.0 16.0 0.00 0.00 0.00 54 1005.4
20220519204528 87 142 7.0 16.0 0.00 0.00 0.00 54 1005.6
20220519203026 87 149 5.0 13.0 0.00 0.00 0.00 58 1005.9
20220519201525 86 83 5.0 11.0 0.00 0.00 0.00 58 1006.1
20220519200021 86 145 4.0 9.0 0.00 0.00 0.00 60 1006.5
20220519194518 86 170 6.0 12.0 0.00 0.00 0.00 56 1006.7
20220519193024 86 64 6.0 13.0 0.00 0.00 0.00 58 1007.1
20220519191550 86 112 6.0 14.0 0.00 0.00 0.00 58 1007.3
20220519190015 86 95 5.0 10.0 0.00 0.00 0.00 60 1007.5
20220519184521 85 89 7.0 12.0 0.00 0.00 0.00 62 1007.8
20220519183007 85 81 7.0 12.0 0.00 0.00 0.00 60 1007.9
20220519181504 85 156 7.0 11.0 0.00 0.00 0.00 65 1008.4
20220519180004 84 118 6.0 13.0 0.00 0.00 0.00 66 1008.6
20220519174501 84 219 6.0 12.0 0.00 0.00 0.00 68 1008.6
20220519173103 84 135 5.0 17.0 0.00 0.00 0.00 69 1008.7
20220519171606 83 123 6.0 15.0 0.00 0.00 0.00 70 1008.9
20220519170100 83 180 8.0 15.0 0.00 0.00 0.00 71 1009.2
20220519164555 82 97 5.0 14.0 0.00 0.00 0.00 72 1009.5
20220519163053 83 122 6.0 12.0 0.00 0.00 0.00 74 1009.6
20220519161551 82 138 6.0 12.0 0.00 0.00 0.00 73 1009.7
20220519160114 82 180 4.0 11.0 0.00 0.00 0.00 75 1009.7
20220519154549 81 180 7.0 11.0 0.00 0.00 0.00 75 1009.8
20220519153047 81 112 7.0 12.0 0.00 0.00 0.00 76 1009.6
20220519151552 80 218 6.0 13.0 0.00 0.00 0.00 76 1009.6
20220519150043 80 197 6.0 11.0 0.00 0.00 0.00 78 1009.8
20220519144541 79 195 4.0 10.0 0.00 0.00 0.00 79 1009.9
20220519143048 78 167 5.0 12.0 0.00 0.00 0.00 79 1010.0
20220519141535 78 147 5.0 12.0 0.00 0.00 0.00 81 1010.1
20220519140056 77 180 7.0 11.0 0.00 0.00 0.00 81 1010.1
20220519134531 76 145 6.0 14.0 0.00 0.00 0.00 82 1010.0
20220519133029 76 175 6.0 12.0 0.00 0.00 0.00 83 1010.0
20220519131526 76 180 5.0 10.0 0.00 0.00 0.00 84 1010.0
20220519130024 75 180 5.0 10.0 0.00 0.00 0.00 85 1009.8
20220519124543 74 180 4.0 10.0 0.00 0.00 0.00 87 1009.7
20220519123018 74 180 4.0 9.0 0.00 0.00 0.00 87 1009.8
20220519121514 73 180 4.0 9.0 0.00 0.00 0.00 88 1009.8
20220519120016 72 180 3.0 6.0 0.00 0.00 0.00 90 1009.7
20220519114521 71 180 2.0 3.0 0.00 0.00 0.00 92 1009.7
20220519113007 70 180 0.0 3.0 0.00 0.00 0.00 92 1009.8
20220519111516 69 180 0.0 0.0 0.00 0.00 0.00 92 1009.8
20220519110006 69 180 0.0 0.0 0.00 0.00 0.00 91 1009.7
20220519104505 69 180 0.0 0.0 0.00 0.00 0.00 91 1009.6
20220519103002 69 180 0.0 2.0 0.00 0.00 0.00 90 1009.5
20220519101600 70 180 0.0 2.0 0.00 0.00 0.00 88 1009.3
20220519100102 71 180 0.0 4.0 0.00 0.00 0.00 91 1009.2
20220519094558 71 180 0.0 2.0 0.00 0.00 0.00 90 1009.2
20220519093058 71 180 0.0 4.0 0.00 0.00 0.00 90 1009.0
20220519091558 71 180 1.0 2.0 0.00 0.00 0.00 90 1008.9
20220519090055 71 180 1.0 3.0 0.00 0.00 0.00 89 1009.0
20220519084556 71 180 2.0 3.0 0.00 0.00 0.00 90 1008.9
20220519083106 72 180 0.0 4.0 0.00 0.00 0.00 89 1008.7
20220519081554 72 180 2.0 4.0 0.00 0.00 0.00 89 1008.5
20220519080118 72 180 1.0 4.0 0.00 0.00 0.00 89 1008.7
20220519074602 72 180 1.0 3.0 0.00 0.00 0.00 88 1008.8
20220519073049 72 180 0.0 3.0 0.00 0.00 0.00 88 1009.0
20220519071556 72 180 2.0 4.0 0.00 0.00 0.00 88 1009.0
20220519070048 72 180 1.0 3.0 0.00 0.00 0.00 88 1009.1
20220519064558 72 122 1.0 3.0 0.00 0.00 0.00 88 1009.2